Location: Arborea
(39.7744°N, 8.5819°E)
Time: 08:24:15
(UTC+00:00)

IRS-1C Rocket - Pass Details

Date: 24 October 2021
Orbit: 801 x 805 km, 98.9° (Epoch: 02 December)

Event Time Altitude Azimuth Distance (km) Brightness Sun altitude
Exits shadow 18:45:20 30° 176° (S) 1,419 5.2 -25.9°
Maximum altitude 18:48:02 76° 257° (WSW) 830 4.1 -26.5°
Drops below altitude 10° 18:53:19 10° 343° (NNW) 2,389 6.8 -27.5°
Sets 18:55:41 0° 345° (NNW) 3,324 7.6 -27.9°
